Location: Autingues
(50.8400°N, 1.9737°E)
Time: 04:27:43
(UTC+00:00)

NOSS 3-4 (A) - Pass Details

Date: 15 May 2026
Orbit: 769 x 1442 km, 63.4° (Epoch: 10 January)

Event Time Altitude Azimuth Distance (km) Brightness Sun altitude
Rises 20:38:58 0° 315° (NW) 3,617 9.0 -8.7°
Reaches altitude 10° 20:41:21 10° 317° (NW) 2,753 7.6 -9.0°
Maximum altitude 20:47:55 80° 44° (NE) 1,136 3.9 -9.7°
Enters shadow 20:55:06 12° 132° (SE) 3,030 5.4 -10.4°
